Location: ????????
(55.6333°N, 37.7000°E)
Time: 02:59:06
(UTC+00:00)

NOSS 3-1 (A) - Pass Details

Date: 19 May 2025
Orbit: 667 x 1541 km, 63.4° (Epoch: 12 June)

Event Time Altitude Azimuth Distance (km) Brightness Sun altitude
Exits shadow 19:02:43 - 178° (S) 2,501 5.1 -8.6°
Reaches altitude 10° 19:03:35 10° 172° (S) 2,226 4.9 -8.6°
Maximum altitude 19:07:44 26° 116° (ESE) 1,524 4.1 -9.0°
Drops below altitude 10° 19:12:31 10° 62° (ENE) 2,590 5.7 -9.3°
Sets 19:15:39 0° 51° (NE) 3,689 6.6 -9.5°
